Weather in Iki-Bukhus

Russia / Republic of Kalmykia     48°02′33″N   45°13′07″E
temp.,
°C
wind,
m/s
gust,
m/s
humid.,
%
clouds,
%
prec.,
mm/h
press.,
hPa
HPBL,
m
7 august, sun
sun700:00+26wsw22365 0.0 101220
03:00+24nne484258 0.0 1013135
06:00+25ne48343 0.0 1013218
09:00+32ene67181 0.0 10131008
12:00+35ese771315 0.0 10124171
15:00+36e7712100 0.0 10114269
18:00+34e871398 0.0 10123984
21:00+28e48185 0.0 1013126
8 august, mon
mon800:00+26e44203 0.0 101353
03:00+23ene22239 0.0 101412
06:00+25ene352372 0.0 1015109
09:00+32e46165 0.0 10152108
12:00+35ene661496 0.0 10154031
15:00+35e351372 0.0 10144135
18:00+33e351637 0.0 10142558
21:00+26nne916345 0.1 1016430
9 august, tue
tue900:00+24ne5113915 0.0 1016231
03:00+23nne47375 0.0 1015132
06:00+23n34404 0.0 1016114
09:00+31ne44255 0.0 1016729
12:00+35e241811 0.0 10153700
15:00+35e751766 0.0 10143313
18:00+33ene342095 0.0 1014216
21:00+30ese6112773 0.0 1015575
10 august, wed
wed1000:00+26e47380 0.0 1015125
03:00+24e34401 0.0 101564
06:00+25ese36390 0.0 1016190
09:00+31ese58281 0.0 10151323
12:00+35ese68210 0.0 10143213
15:00+36se67181 0.0 10123530
18:00+35ese462275 0.0 1012741
21:00+32ese492396 0.0 1012306
11 august, thu
thu1100:00+28se35310 0.0 101377
03:00+26e33330 0.0 101333
06:00+26e48350 0.0 1014211
09:00+33e692157 0.0 10141851
12:00+37ese671434 0.0 10123214
15:00+38ese56144 0.0 10113833
18:00+37e4615100 0.0 10111762
21:00+32s6122128 0.0 1012452